Location: Brook Crossings Estates
(41.7161°N, 88.1822°W)
Time: 01:23:38
(UTC+00:00)

Daily predictions for brighter satellites

Satellite Brightness Start Highest point End
(mag) Time Altitude Azimuth Time Altitude Azimuth Time Altitude Azimuth
Cosmos 1844 4.1 01:28:09 10° SSW 01:33:51 72° WNW 01:39:32 10° NNE
Cosmos 1833 Rocket 4.1 01:30:14 10° N 01:34:44 23° NE 01:39:11 10° ESE
SL-08 ROCKET BODY 4.4 01:29:43 10° N 01:35:37 89° W 01:41:27 10° S
Cosmos 1689 Rocket 4.4 01:36:29 10° N 01:38:55 28° WNW 01:41:22 10° SW
Cosmos 1242 Rocket 2.6 01:39:23 10° S 01:42:52 56° E 01:46:21 10° NNE
USA 186 1.9 01:40:57 10° S 01:43:21 50° W 01:45:39 10° NNW
GPS 2-04 Rocket1 3.6 01:41:44 10° WSW 01:45:30 33° S 01:49:10 10° ESE
Resurs 01 Rocket 2.7 01:42:02 10° SE 01:45:50 29° ENE 01:49:39 10° N
S3M 4.0 01:40:57 10° S 01:47:18 80° E 01:53:38 10° N
MOS 1 4.4 01:43:08 10° SSE 01:48:42 65° ENE 01:54:20 10° N
X-37B 0.6 01:48:19 10° WNW 01:51:31 74° SSW 01:54:18 13° ESE
Cosmos 2315 Rocket 4.3 01:51:52 10° SSE 01:57:59 51° E 02:04:09 10° NNE
Cosmos 1805 Rocket 4.0 01:55:14 10° NNW 01:59:33 64° W 02:03:52 10° S
ERS-2 3.7 01:56:46 10° N 02:00:10 39° WNW 02:03:33 10° SW
OBJECT-B 1.6 01:57:33 10° S 02:00:42 50° W 02:03:52 10° NNW
USA 307 4.4 01:59:06 10° NW 02:02:51 29° NNE 02:06:36 10° E
Cosmos 1633 Rocket 3.3 01:59:47 10° N 02:04:05 50° E 02:07:58 12° SSE
USA 267 4.4 02:04:23 10° SSE 02:10:21 37° SW 02:16:21 10° WNW
Cosmos 1328 Rocket 3.7 02:06:19 10° S 02:10:37 54° E 02:14:56 10° NNE
Cosmos 1271 Rocket 4.4 02:11:54 16° ESE 02:13:04 18° E 02:15:50 10° NE
ISS -1.8 02:12:33 10° S 02:13:27 14° SSE 02:13:27 14° SSE
USA 290 4.1 02:13:23 10° NW 02:16:12 28° WSW 02:18:58 10° SSW
USA 308 4.1 02:12:45 10° NW 02:16:41 34° NNE 02:20:06 13° E
Cosmos 1777 Rocket 3.9 02:11:43 10° S 02:16:51 67° ESE 02:22:02 10° NNE
Cosmos 1470 Rocket 4.2 02:14:24 10° N 02:18:39 41° ENE 02:21:26 19° SE
Terra 4.0 02:17:36 10° E 02:19:24 12° ENE 02:21:13 10° NE
Cosmos 2082 Rocket 3.5 02:14:55 10° N 02:19:38 27° NE 02:23:13 15° ESE
OE (NEXTSAT) 4.3 02:18:12 10° WNW 02:21:41 85° NNE 02:23:43 23° ESE
Meteor 1-26 Rocket 4.2 02:16:12 10° S 02:21:53 86° W 02:27:25 10° N
Cosmos 1602 3.8 02:18:34 10° N 02:22:27 82° W 02:25:55 13° S
MetOp-B 4.5 02:18:34 17° SE 02:22:32 50° ENE 02:27:42 10° N
Ariane Rocket 3.3 02:17:36 10° S 02:22:37 66° WSW 02:27:40 10° NNW
CREW DRAGON DEMO-1 DEB 4.0 02:24:12 10° NW 02:26:33 28° NNE 02:27:46 19° ENE
Cosmos 1437 2.4 02:25:45 12° SSW 02:28:23 81° WNW 02:31:13 10° N
Tianhe-1 2.7 02:26:38 10° SSW 02:28:16 20° S 02:28:16 20° S
Resurs 1-3 4.3 02:27:38 10° S 02:31:54 52° W 02:36:12 10° NNW
Cosmos 1933 Rocket 4.2 02:28:36 10° N 02:32:39 37° ENE 02:34:30 25° SE
ARIANE 5 R/B 3.7 02:31:08 21° ESE 02:33:00 29° ENE 02:36:44 10° N
COSMOS 2406 3.3 02:27:41 10° NNW 02:33:19 63° ENE 02:36:56 23° SE
OAO 3 Rocket 4.2 02:29:54 10° SW 02:33:37 24° SSE 02:34:13 23° SSE
Cosmos 1666 Rocket 4.0 02:30:14 10° NNW 02:34:33 59° W 02:38:36 11° S
Cosmos 1782 3.4 02:31:54 10° SSW 02:35:50 56° W 02:39:45 10° N
SPOT 5 4.3 02:33:36 18° ESE 02:36:03 26° ENE 02:40:23 10° N
Cosmos 1943 Rocket 3.9 02:39:12 14° E 02:39:12 14° E 02:41:29 10° ENE
Cosmos 1812 2.6 02:37:34 20° S 02:40:03 68° E 02:43:54 10° NNE
SJ 16-02 1.4 02:36:31 13° S 02:40:27 60° ESE 02:44:50 10° NNE
Cosmos 2278 Rocket 2.1 02:36:22 10° SSW 02:42:01 87° ESE 02:47:43 10° NNE
EP 1 4.5 02:38:57 10° SSW 02:42:25 65° SE 02:45:12 10° NE
Meteor 1-14 Rocket 4.2 02:36:49 10° N 02:42:40 87° E 02:46:52 19° S
Cosmos 1666 3.2 02:41:01 10° N 02:44:34 41° ENE 02:45:30 34° ESE
Meteor 2-6 Rocket 4.1 02:41:00 15° S 02:45:32 67° E 02:51:02 10° NNE
Iridium 4 Rocket 4.1 02:42:49 23° SSE 02:46:08 48° E 02:51:48 10° NNE
Landsat 7 3.8 02:45:52 21° S 02:49:02 82° WSW 02:53:49 10° NNW
USA 245 3.2 02:50:48 31° NNE 02:50:48 31° NNE 02:52:23 10° N
Cosmos 1151 Rocket 4.4 02:49:12 10° SSW 02:53:16 39° WNW 02:57:24 10° N
Meteor 1-27 Rocket 4.4 02:52:26 28° SE 02:54:41 38° E 03:00:06 10° NNE
USA 305 3.1 02:51:45 10° NW 02:56:00 63° NE 02:57:39 34° ESE
ATLAS 5 CENTAUR R/B 3.7 02:50:54 10° NW 02:56:11 33° WSW 03:01:20 13° S
Cosmos 158 Rocket 4.2 02:54:02 10° N 02:58:49 51° ENE 03:00:36 34° ESE
CZ-4C R/B 3.1 02:51:56 10° NW 02:59:24 78° WSW 03:04:45 25° SSE
NOSS 3-4 (A) 4.0 02:55:46 10° NNW 03:02:46 66° NE 03:07:09 28° SE
NOSS 3-4 (C) 4.0 02:55:52 10° NNW 03:02:53 65° NE 03:07:15 28° SE
IGS 5A 4.5 03:03:39 19° SSW 03:06:11 41° W 03:10:08 10° NNW
SPOT 1/Viking Rocket 3.5 03:03:30 29° S 03:06:16 84° WSW 03:11:29 10° NNW
USA 306 2.8 03:11:13 10° NW 03:15:30 86° NE 03:16:24 55° SE
ATLAS 2AS CENTAUR R/B 3.3 03:09:01 10° NNW 03:16:08 48° NE 03:19:41 27° ESE
Cosmos 2154 Rocket 4.2 03:09:57 10° N 03:16:09 55° ENE 03:18:30 36° SE
Cosmos 1833 Rocket 3.1 03:13:29 10° NNW 03:19:00 56° WSW 03:21:40 30° S
Resurs 01 Rocket 3.4 03:19:13 13° SSW 03:22:16 27° W 03:26:02 10° NW
Cosmos 2228 Rocket 2.9 03:21:23 51° S 03:22:26 77° E 03:26:55 10° N
Cosmos 2184 Rocket 3.9 03:16:56 10° N 03:23:11 90° ESE 03:26:01 35° S
GPS 2-04 Rocket1 4.1 03:20:51 10° WSW 03:23:21 26° SW 03:23:21 26° SW
Cosmos 1536 3.2 03:20:41 10° N 03:24:36 48° E 03:24:37 48° E
Nadezhda 1 Rocket 4.0 03:21:49 34° SSE 03:24:39 69° E 03:30:52 10° NNE
Cosmos 2074 Rocket 4.0 03:18:45 10° N 03:25:05 85° W 03:28:08 33° S
Meteor 1-11 Rocket 3.8 03:20:00 10° N 03:25:59 77° E 03:28:07 42° SSE
X-37B 3.3 03:25:59 10° WSW 03:26:35 12° WSW 03:26:35 12° WSW
Spot 2 Rocket 3.6 03:28:09 38° S 03:30:01 67° WSW 03:35:03 10° NNW
ERS-1 Rocket 2.9 03:29:55 50° SSE 03:31:15 82° ENE 03:36:18 10° NNW
Cosmos 1937 Rocket 3.9 03:33:12 42° E 03:33:12 42° E 03:37:59 10° NNE
Cosmos 1869 Rocket 3.3 03:37:46 10° N 03:42:07 89° W 03:42:25 78° S
USA 307 3.0 03:38:52 10° WNW 03:42:59 61° SW 03:42:59 61° SW
Cosmos 2297 3.6 03:42:08 49° S 03:43:37 69° ESE 03:49:16 10° NNE
Cosmos 1680 Rocket 3.5 03:38:42 10° NNW 03:44:02 71° ENE 03:44:59 57° SE
Cosmos 1610 Rocket 4.4 03:42:23 10° N 03:48:32 87° W 03:50:27 47° S
Cosmos 967 Rocket 4.3 03:45:38 32° SSW 03:48:41 78° ESE 03:54:58 10° NE
Cosmos 1271 Rocket 4.4 03:46:58 22° WSW 03:48:47 31° WNW 03:52:23 10° N
Cosmos 858 Rocket 4.5 03:49:17 58° ESE 03:49:22 58° ESE 03:54:30 10° NNE
BREEZE-M DEB (TANK) 4.1 03:50:36 10° NW 03:51:23 19° NNW 03:51:23 19° NNW
Cosmos 2181 Rocket 4.4 03:53:39 41° ESE 03:54:14 42° E 03:59:57 10° NNE
Milstar 3 3.9 03:42:37 10° WSW 03:54:48 38° S 03:56:12 37° S
Terra 1.7 03:56:00 72° SSW 03:56:27 81° WSW 04:01:14 10° NNW
USA 308 3.6 03:52:39 10° WNW 03:56:12 43° WSW 03:56:12 43° WSW
Cosmos 1707 Rocket 3.6 03:57:35 71° NE 03:57:35 71° NE 04:01:39 10° N
Cosmos 1900 4.4 03:55:46 42° SW 03:57:29 79° WNW 04:02:34 10° NNE
H-2A R/B 3.5 03:53:36 10° N 03:57:46 77° WNW 03:57:46 77° WNW
Cosmos 44 3.5 03:53:20 10° NNW 03:58:45 70° NE 03:59:24 62° E
SL-24 R/B - RUBIN 2 3.8 03:54:42 10° NNW 04:00:04 70° NE 04:00:28 66° E
Cosmos 1461 3.7 04:04:50 47° ENE 04:04:50 47° ENE 04:08:18 10° NE
Cosmos 2082 Rocket 2.7 03:58:34 10° NW 04:03:55 47° WSW 04:05:04 41° SW
ARIANE 5 R/B 4.2 04:08:41 24° WSW 04:09:25 25° W 04:13:00 10° NW
Meteor 1-18 Rocket 4.4 04:12:38 52° E 04:12:38 52° E 04:17:58 10° NNE
Cosmos 1818 3.7 04:08:07 10° NNW 04:13:35 62° NE 04:14:10 58° E
SPOT 5 3.9 04:12:49 37° SW 04:13:51 41° W 04:18:49 10° NNW
Cosmos 2341 Rocket 3.9 04:08:35 10° N 04:15:01 80° E 04:16:10 62° SSE
Cosmos 1898 Rocket 4.0 04:14:18 38° SW 04:16:06 57° WNW 04:21:22 10° NNE
Centaur D AC-29 4.0 03:06:04 10° WSW 04:17:08 39° S 04:19:09 37° S
SJ 16-02 4.2 04:17:02 10° W 04:19:26 14° WNW 04:21:51 10° NNW
Cosmos 1943 Rocket 2.2 04:20:39 60° SW 04:21:42 79° WNW 04:27:20 10° NNE
Cosmos 372 Rocket 4.1 04:24:06 61° ENE 04:24:06 61° ENE 04:28:32 10° NNE
Cosmos 2218 Rocket 4.0 04:19:38 10° N 04:25:54 64° E 04:26:40 59° ESE
Cosmos 1733 Rocket 3.5 04:25:18 10° N 04:28:48 58° NNW 04:28:48 58° NNW
Cosmos 2369 Rocket 2.2 04:33:00 65° E 04:33:00 65° E 04:38:11 10° NNE
Cosmos 1656 Rocket 4.4 04:38:21 38° ENE 04:38:21 38° ENE 04:42:21 10° NE
Cosmos 2084 Rocket 4.4 04:37:18 10° NW 04:40:24 46° NW 04:40:24 46° NW
Cosmos 1743 4.4 04:39:03 10° NNW 04:41:34 29° WNW 04:41:34 29° WNW
SL-8 Rocket 3.9 04:38:12 10° N 04:44:32 79° W 04:45:14 70° SSW
Cosmos 1238 Rocket 3.7 04:39:54 10° NNW 04:45:44 67° W 04:45:44 67° W
Meteor 2-9 Rocket 4.1 04:42:19 10° NNW 04:48:04 81° W 04:48:06 81° WSW
Meteor 1-19 Rocket 4.3 04:54:24 60° W 04:54:35 61° WNW 04:59:57 10° N
Gbstr 26 Del rocket 3.8 04:55:49 10° NW 05:03:04 89° NNE 05:03:26 81° ESE
Cosmos 2263 4.2 05:04:30 82° NE 05:04:30 82° NE 05:10:02 10° NNE
Cosmos 1867 3.7 05:05:35 73° NNE 05:05:35 73° NNE 05:10:33 10° NNE
ATLAS 2AS CENTAUR R/B 3.4 05:00:24 10° NW 05:06:54 38° WSW 05:07:07 38° WSW
SL-08 R/B 4.4 05:02:23 10° N 05:08:40 77° E 05:08:54 76° ESE
Meteor 2-4 Rocket 3.7 05:12:56 75° WNW 05:12:56 75° WNW 05:18:27 10° N
Okean 1-7 4.3 05:23:18 39° N 05:23:18 39° N 05:26:05 10° N
RESURS DK-1 3.9 05:20:27 10° NNW 05:22:55 34° NNW 05:22:55 34° NNW
ISS -0.7 05:30:10 15° NNE 05:30:10 15° NNE 05:31:15 10° NNE
Meteor 1-13 Rocket 4.3 05:29:54 67° NE 05:29:54 67° NE 05:34:48 10° NNE
Cosmos 1833 4.2 05:26:32 10° NNW 05:31:57 78° N 05:31:57 78° N
Cosmos 1048 Rocket 4.4 05:29:02 10° NNW 05:33:26 61° NW 05:33:26 61° NW
Cosmos 1934 Rocket 4.1 05:35:50 10° N 05:41:52 58° E 05:41:59 58° E
Gblst 52 Del rocket 4.5 05:37:45 10° WNW 05:43:42 68° W 05:43:42 68° W
Cosmos 1821 Rocket 4.0 05:39:04 10° N 05:45:27 74° W 05:45:32 74° WSW
Cosmos 44 Rocket 4.0 05:42:46 10° NNW 05:47:34 53° NE 05:47:34 53° NE
ALOS 2 4.1 05:52:15 31° NW 05:52:15 31° NW 05:54:51 10° NNW
Cosmos 2344 4.4 05:41:23 10° NW 05:50:58 79° NE 05:58:24 31° SE
Thor Agena Rocket 3.8 05:48:03 10° NNE 05:52:40 69° NNE 05:52:40 69° NNE
COSMOS 2455 4.5 05:55:40 10° NNW 06:00:51 29° NE 06:04:24 17° E
SeaSat 1 3.2 05:57:22 10° NNE 06:01:03 47° ENE 06:01:03 47° ENE
ATLAS CENTAUR R/B 3.5 06:06:18 22° NNW 06:06:18 22° NNW 06:08:24 10° N
Cosmos 1535 Rocket 4.4 06:05:40 10° N 06:11:58 90° E 06:12:06 87° S
Cosmos 2369 Rocket 4.2 06:14:44 16° W 06:17:09 20° NW 06:21:14 10° N
SL-16 R/B 4.4 06:15:31 13° ESE 06:19:32 23° ENE 06:24:18 10° N
Lacrosse 5 2.3 06:27:21 61° N 06:27:21 61° N 06:31:46 10° NE
CZ-2D R/B 3.7 06:28:33 10° NE 06:32:48 23° E 06:33:07 23° E
Okean 2 Rocket 4.4 06:31:12 10° NNW 06:33:57 35° NW 06:33:57 35° NW
NOSS 2-1 (E) 4.3 06:33:08 10° NW 06:38:30 86° WSW 06:38:51 81° S
Resurs 1-4 Rocket 3.5 06:34:36 10° NE 06:39:02 27° E 06:39:15 27° E
Helios 1A 4.0 06:42:57 44° NNE 06:42:57 44° NNE 06:46:01 10° N
Cosmos 1697 Rocket 4.3 06:42:23 22° ESE 06:42:38 22° E 06:46:50 10° NE
USA 215 3.3 06:39:06 27° ESE 06:42:57 76° NE 06:49:30 10° NW
Cosmos 1726 4.0 06:46:37 10° N 06:48:44 30° NNE 06:48:44 30° NNE
Cosmos 1470 4.2 06:46:30 10° N 06:49:01 37° NNE 06:49:01 37° NNE
Cosmos 1605 Rocket 4.0 06:45:06 10° NNW 06:51:18 64° W 06:51:32 64° WSW
USA 281 3.7 06:49:16 29° ESE 06:52:33 55° ENE 06:58:56 10° NNW
Cosmos 1980 Rocket 4.3 06:54:10 13° ESE 06:55:29 14° E 06:58:20 10° ENE
Cosmos 1153 Rocket 4.4 06:49:21 10° N 06:55:48 88° E 06:56:39 70° SSE
Cosmos 2173 Rocket 4.4 06:55:55 10° N 07:02:01 58° E 07:03:44 44° SE
Cosmos 1400 Rocket 4.4 07:00:31 10° NNW 07:02:49 31° NNW 07:02:49 31° NNW
Cosmos 1758 4.3 07:01:56 10° N 07:05:05 47° NNE 07:05:05 47° NNE
ISS -0.7 07:04:22 10° NNW 07:06:38 16° N 07:08:53 10° NE
Cosmos 2227 Rocket 3.1 07:02:31 10° NNW 07:07:56 45° ENE 07:10:57 24° ESE
Cosmos 1975 Rocket 3.9 07:08:32 45° ENE 07:08:32 45° ENE 07:12:16 10° NNE
Cosmos 2297 Rocket 2.5 07:05:04 10° NNW 07:10:42 62° ENE 07:12:27 42° SE
Cosmos 1315 Rocket 3.8 07:07:08 10° N 07:10:25 45° NE 07:10:25 45° NE
In-Cosmos 22 4.3 07:13:17 60° SE 07:13:56 65° E 07:19:23 10° NNE
Meteor 1-21 4.2 07:14:39 69° WSW 07:15:06 73° W 07:20:55 10° N
Cosmos 1656 3.5 07:26:41 72° WSW 07:27:10 79° WNW 07:32:43 10° NNE
Cosmos 2100 Rocket 3.9 07:25:00 10° N 07:31:20 80° W 07:32:47 56° S
Cosmos 1025 Rocket 3.8 07:31:57 42° ESE 07:32:17 43° E 07:36:25 10° NNE
Cosmos 1707 3.9 07:33:30 35° NW 07:33:30 35° NW 07:36:07 10° N
Cosmos 2251 Rocket 3.4 07:27:25 10° NNW 07:32:41 88° WSW 07:33:16 71° SSE
Cosmos 1802 Rocket 3.9 07:27:24 10° N 07:33:34 80° E 07:35:31 46° SSE
Cosmos 2123 Rocket 4.1 07:33:54 45° SSE 07:35:48 68° E 07:41:58 10° NNE
Okean 1 Rocket 4.4 07:31:52 10° NNW 07:34:35 28° WNW 07:34:35 28° WNW
Cosmos 614 Rocket 4.0 07:31:39 10° NNW 07:36:46 77° ENE 07:37:57 53° SE
SeaSat 1 4.3 07:35:47 10° N 07:39:21 20° NW 07:40:49 18° WNW
IDEFIX/ARIANE 42P 4.3 07:41:36 10° NE 07:45:53 25° E 07:48:54 15° SE
COSMOS 2455 2.9 07:41:14 10° NW 07:47:04 53° WSW 07:47:29 52° SW
Helios 1B rocket 2.4 07:43:48 10° N 07:47:45 73° NW 07:47:45 73° NW
Cosmos 1908 3.4 07:45:01 10° N 07:48:52 69° ENE 07:48:52 69° ENE
Cosmos 371 Rocket 3.5 07:48:59 54° W 07:49:23 55° WNW 07:54:13 10° NNE
Cosmos 332 Rocket 3.7 07:53:44 66° SW 07:54:22 81° WNW 07:59:16 10° NNE
Cosmos 1864 Rocket 4.5 07:48:02 10° N 07:54:26 86° E 07:57:23 34° S
Cosmos 2219 3.1 07:49:36 10° NNW 07:55:16 67° WSW 07:56:43 49° S
Timation 1 Rocket 4.4 07:49:32 10° NNW 07:55:32 77° ENE 08:00:28 16° SSE
SL-16 R/B 2.6 08:00:37 42° SSW 08:02:38 62° WSW 08:08:50 10° NNW
Cosmos 2263 Rocket 4.5 07:58:16 10° N 08:02:49 24° NE 08:07:22 10° ESE
Lacrosse 4 Rocket 1.4 08:02:37 68° S 08:03:10 83° ESE 08:07:36 10° NNE
Cosmos 1544 Rocket 3.5 07:59:20 10° N 08:03:46 87° E 08:04:39 57° SSE
Cosmos 1953 2.4 08:00:49 10° NNW 08:04:27 58° WNW 08:04:27 58° WNW
ADEOS II 2.1 07:59:44 10° NNE 08:05:00 73° ESE 08:06:52 41° S
APEX 4.0 08:03:51 10° NNW 08:08:30 79° ENE 08:14:18 10° SSE
AQUA 3.8 08:05:26 10° N 08:10:11 68° WNW 08:11:12 52° SW
SL-08 R/B 4.5 08:04:02 10° N 08:10:24 76° W 08:13:31 33° S
Lacrosse 5 4.0 08:06:36 10° WNW 08:10:26 21° NNW 08:14:17 10° NNE
Landsat 4 3.6 08:07:37 10° N 08:11:22 70° WNW 08:11:29 70° W
NPP 3.9 08:07:11 10° N 08:12:28 56° WNW 08:14:01 41° WSW
CZ-2D R/B 2.6 08:07:55 10° N 08:13:02 45° WNW 08:14:26 37° WSW
Cosmos 1455 Rocket 3.5 08:09:39 10° NNW 08:13:38 42° W 08:13:38 42° W
Meteor 1-29 3.2 08:15:03 10° N 08:18:11 53° WNW 08:18:11 53° WNW
Resurs 1-4 Rocket 2.8 08:14:05 10° N 08:18:55 38° WNW 08:20:20 32° WSW
ADEOS Rocket 3.7 08:13:02 10° SSE 08:20:27 79° ENE 08:28:16 10° N
Cosmos 1536 Rocket 3.5 08:20:10 45° S 08:21:29 85° E 08:25:57 10° N
BREEZE-M DEB (TANK) 3.7 08:19:53 31° WSW 08:22:25 73° NNW 08:37:19 10° ENE
Meteor 2-5 Rocket 3.9 08:21:35 26° S 08:24:53 69° E 08:30:29 10° NNE
Cosmos 1674 3.9 08:25:26 27° WNW 08:25:26 27° WNW 08:28:36 10° NNW
Cosmos 1697 Rocket 3.0 08:24:06 35° WSW 08:26:09 52° WNW 08:31:40 10° NNE
Cosmos 407 Rocket 3.4 08:20:49 10° NNW 08:26:11 75° WSW 08:29:41 22° S
USA 215 3.9 08:26:21 30° SW 08:26:21 30° SW 08:31:57 10° WNW
Cosmos 2360 4.4 08:24:06 36° SW 08:26:20 63° WNW 08:32:03 10° NNE
Cosmos 1725 Rocket 4.1 08:20:44 10° NNW 08:26:48 55° W 08:29:36 31° SSW
GP-B 3.0 08:24:33 10° N 08:29:00 85° W 08:30:46 37° S
Atlas Centaur 2 4.3 08:28:30 16° S 08:30:02 17° SSE 08:34:21 10° ESE
CZ-4C R/B 3.7 08:29:51 17° SSE 08:33:05 70° ENE 08:37:13 10° N
CBERS-1 4.0 08:28:33 10° NNE 08:33:41 88° ESE 08:36:21 29° SSW
Cosmos 1624 Rocket 4.0 08:32:24 35° SSW 08:34:42 75° WNW 08:40:03 10° NNE
Cosmos 405 4.3 08:31:24 10° N 08:34:43 38° ENE 08:37:59 10° SSE
SL-14 R/B 3.3 08:34:44 47° SW 08:35:37 63° W 08:39:33 10° N
Cosmos 2233 Rocket 3.9 08:29:35 10° NNW 08:35:46 73° W 08:40:08 20° S
Aureole 2 Rocket 4.3 08:34:33 10° N 08:36:47 23° ENE 08:39:00 10° ESE
USA 281 4.0 08:36:07 27° WSW 08:37:18 28° WSW 08:42:51 10° NW
Cosmos 1980 Rocket 2.2 08:35:56 32° SSW 08:38:43 79° WNW 08:44:25 10° NNE
CENTAUR R/B 4.4 08:35:25 10° SSE 08:39:26 20° ESE 08:43:53 10° ENE
Cosmos 1626 3.1 08:42:30 30° W 08:42:47 30° WNW 08:46:05 10° NNW
ISS -2.4 08:40:52 10° NW 08:44:06 41° NNE 08:47:20 10° E
Spot 1 4.2 08:46:49 14° S 08:50:53 79° WSW 08:55:50 10° NNW
Cosmos 2227 Rocket 3.2 08:47:08 10° NW 08:51:41 26° WSW 08:52:41 24° WSW
Cosmos 1452 Rocket 4.1 08:49:49 15° S 08:54:02 54° ESE 08:59:11 10° NNE
Cosmos 2297 Rocket 3.6 08:50:23 10° WNW 08:54:09 18° W 08:54:12 18° W
Cosmos 1954 Rocket 4.0 08:49:13 10° NNW 08:54:31 90° NE 08:59:50 10° SSE
Cosmos 2056 Rocket 3.9 08:53:58 26° SW 08:56:29 48° WNW 09:01:27 10° N
Cosmos 1300 2.8 08:54:17 10° NNW 08:58:00 52° W 08:59:48 27° SSW
Cosmos 2285 Rocket 4.2 08:55:09 23° SW 08:59:08 59° WNW 09:05:30 10° NNE
Cosmos 220 Rocket 4.1 08:56:53 22° SSW 08:59:40 81° ESE 09:04:06 10° NNE
Cosmos 2369 4.5 08:56:40 22° WSW 08:59:49 39° WNW 09:05:11 10° N
Cosmos 2278 3.9 08:57:35 24° SW 09:01:02 60° WNW 09:06:42 10° NNE
IRS-1C 4.1 09:00:17 10° NNE 09:05:39 83° WNW 09:10:04 15° SSW
CZ-2C R/B 3.9 09:01:53 10° NNE 09:06:37 36° E 09:11:22 10° SSE
Cosmos 2082 4.2 09:02:23 10° NW 09:07:35 38° WSW 09:12:46 10° S
Cosmos 1346 Rocket 3.7 09:04:18 10° S 09:08:02 47° E 09:11:48 10° NNE
OAO 2 Rocket 4.0 09:08:20 21° SW 09:11:20 40° S 09:16:18 10° ESE
Cosmos 1455 3.6 09:10:16 10° N 09:13:55 40° ENE 09:17:33 10° SSE
MSX 3.8 09:08:14 10° N 09:14:01 76° WNW 09:19:17 13° SSW
SL-16 R/B 2.7 09:08:41 10° S 09:14:12 57° ESE 09:19:45 10° NNE
Cosmos 1140 Rocket 4.5 09:15:49 10° NW 09:20:09 27° W 09:23:28 15° SSW
SL-08 R/B 3.2 09:18:35 10° S 09:23:17 77° WSW 09:27:57 10° NNW
IDEFIX/ARIANE 42P 3.2 09:20:39 10° N 09:25:35 42° WNW 09:29:42 14° SW
Cosmos 1892 Rocket 3.5 09:21:46 10° S 09:26:06 87° E 09:30:27 10° N
Cosmos 1340 3.8 09:24:28 18° WSW 09:26:24 27° WNW 09:29:39 10° NNW
Cosmos 1741 Rocket 4.5 09:23:55 10° NNW 09:29:08 66° ENE 09:34:18 10° SSE
NOSS 3-2 (C) 4.4 09:25:49 10° S 09:30:53 40° ESE 09:36:34 10° NE
USA 32 4.1 09:31:02 10° N 09:36:20 85° E 09:41:35 10° S
Meteor 2-10 Rocket 3.9 09:33:58 10° NNW 09:39:29 54° W 09:44:48 10° S
CZ-2C R/B 3.2 09:37:03 10° NNE 09:41:05 70° ESE 09:45:05 10° S
Okean 1-7 Rocket 3.9 09:36:38 10° S 09:41:08 73° E 09:45:43 10° NNE
Cosmos 2322 Rocket 2.4 09:35:48 10° SSW 09:41:26 74° ESE 09:47:08 10° NNE
Lacrosse 4 Rocket 3.8 09:40:12 10° WNW 09:42:25 13° NW 09:44:38 10° NNW
ADEOS II 3.9 09:41:02 10° NNW 09:44:03 16° WNW 09:47:05 10° W
ARIANE 5 R/B 3.0 09:40:00 10° N 09:44:52 45° WNW 09:49:40 10° SW
Cosmos 2058 Rocket 3.1 09:41:03 10° N 09:45:36 88° WSW 09:50:06 10° S
Cosmos 2263 Rocket 2.3 09:41:34 10° NNW 09:47:05 54° WSW 09:52:34 10° S
Cosmos 1726 Rocket 3.8 09:44:02 10° NNW 09:48:15 48° W 09:52:29 10° SSW
Cosmos 1606 Rocket 4.2 09:44:15 10° NNW 09:48:19 37° W 09:52:23 10° SSW
Cosmos 2228 3.9 09:46:17 10° NNW 09:49:59 29° W 09:53:42 10° SSW
SL-24 R/B 4.4 09:47:44 10° SSE 09:51:27 63° ENE 09:55:35 10° N
NOSS 3-2 (A) 3.3 09:47:51 10° SW 09:53:22 81° NW 09:59:43 10° NE
CZ-4B R/B 4.3 09:50:35 10° N 09:55:05 34° WNW 09:59:41 10° SW
Lacrosse 5 4.5 09:52:30 10° NNW 09:55:11 14° N 09:57:51 10° NNE
Meteor 1-21 Rocket 4.2 09:54:19 10° SSW 09:59:55 81° W 10:05:29 10° N
Tsikada Rocket 4.1 09:57:27 10° S 10:03:51 79° W 10:10:15 10° N
Cosmos 2360 Rocket 2.7 09:58:32 10° S 10:04:07 65° ESE 10:09:45 10° NNE
Cosmos 2219 Rocket 4.4 10:00:11 10° SSE 10:04:38 24° ESE 10:09:06 10° NE
USA 238 DEB 3.7 10:00:46 10° SW 10:07:18 86° NW 10:14:10 10° NE
USA 238 3.7 10:00:53 10° SW 10:07:24 86° NW 10:14:17 10° NE
